STARLINK-2635, 48355

Orbit data source: Space-Track

STARLINK-2635, 48355 is a payload satellite owned by SpaceX/Seattle (US) in LEO that was launched on Tue, 04 May 2021 UTC via an FALCON 9 launch vehicle from the Air Force Eastern Test Range (AFETR). Payload-class satellites include a variety of spacecraft equipped with specific instruments for various scientific and technological missions. These include communications satellites like Starlink; space stations such as the ISS; scientific satellites like the Hubble; Earth observation satellites from companies like Planet Labs, Umbra, and HawkEye 360; GPS; miniature CubeSats for education and research; and military/defense satellites.

Loading next visibility...
Identifier
48355, 2021-038C
Orbit
LEO
Country
Flag of USUS
Related business
Manufacturer
SpaceX/Seattle
Mission
Operational Commercial Communications
Bus & Motor
STARLINK, Unknown motor
Mass
260 kg wet, ~248 kg dry
Launch date (UTC)
2021-05-04 (5 years ago)
Launch vehicle
FALCON 9
Launch site
Air Force Eastern Test Range (AFETR)
Object type
Payload
Rocket body
Debris
Shape & HBR
Box + 1 Pan, 10.1 m
Radar Cross Section
13.562 m², Large (>1 m²)

Expand to show TLE details & history
Last TLE update: 2 days ago

TLE from 2 days ago
0 STARLINK-2635
1 48355U 21038C   26171.43916671  .00001374  00000-0  56045-4 0  9992
2 48355  53.1578 240.1004 0001230  92.3744 267.7399 15.31700819282822
Epoch: 2026-06-20T10:32Z
TLE epoch observation values (Epoch: 2026-06-20T10:32:24.003Z)
Latitude
0.00003°
Longitude
173.34663°
Altitude
471.671 km
Speed
7.631 km/s
True Right ascension
16h 00m 24s
True Declination
0° 00' 00"
Sunlit
Object was in full shadow at epoch
Visualization orbit readout
Latitude
Unknown
Longitude
Unknown
Altitude
Unknown
Speed
Unknown
Apparent Right ascension
Unknown
Apparent Declination
Unknown
Sunlit
N/A
Visualization observer readout
Local Sidereal Time
21:25:14
Azimuth
Unknown
Elevation
Unknown
Doppler factor
Unknown
Orbital elements
Apogee altitude
471.837 km
Perigee altitude
470.152 km
Semi-major axis
6,849.132 km
Eccentricity
0.00012
Inclination
53.1578°
RAAN
240.1004°
Arg. of periapsis
92.3744°
True anomaly
267.72582°
Mean anomaly
267.7399°
Eccentric anomaly
267.73286°
Mean motion
3.82904 °/min
Orbital period
94.02 mins
BSTAR
0.000056045
Loading maneuver chart data...
Computing Atmospheric mass density...

Documentation

Showing up to 5 results
|